Olive Branch, MS

9:12 PM CDT on March 24, 2017 (GMT -0500)
Olive Branch

Weather History for KOLV - July, 2013

Change the Weather History Date:

Monday, July 8, 2013

  Actual Average (KMEM) Record (KMEM)
Temperature  
Mean Temperature 78 °F -  
Max Temperature 87 °F 92 °F 101 °F (1969)
Min Temperature 69 °F 74 °F 61 °F (1972)
Cooling Degree Days 13    
Growing Degree Days 28 (Base 50)    
Moisture  
Dew Point 75 °F    
Average Humidity 92    
Maximum Humidity 100    
Minimum Humidity 62    
Precipitation  
Precipitation 0.00 in - - ()
Sea Level Pressure  
Sea Level Pressure 30.12 in    
Wind  
Wind Speed 4 mph (SSE)    
Max Wind Speed 9 mph    
Max Gust Speed -    
Visibility 9 miles    
Events Fog    
Averages and records for this station are not official NWS values.
T = Trace of Precipitation, MM = Missing Value Source: NWS Daily Summary

Daily Weather History Graph

Daily Weather History Graph

Search for Another Location

Airport or City:

Trip Planner

Search our weather history database for the weather conditions in past years. The results will help you decide how hot, cold, wet, or windy it might be!

Date:

Astronomy

Jul. 08, 2013 Rise Set
Actual Time 5:52 AM CDT 8:15 PM CDT
Civil Twilight 5:23 AM CDT 8:45 PM CDT
Nautical Twilight 4:47 AM CDT 9:21 PM CDT
Astronomical Twilight 4:07 AM CDT 10:00 PM CDT
Moon 6:18 AM CDT (7/8) 8:22 PM CDT (7/8)
Length of Visible Light 15h 21m
Length of Day
14h 23m
New Moon, 0% of the Moon is Illuminated
Jul 8
New Moon
Jul 15
First Quarter
Jul 22
Full
Jul 29
Last Quarter
Aug 6
New

Hourly Weather History & Observations

Time (CDT) Temp. Heat Index Dew Point Humidity Pressure Visibility Wind Dir Wind Speed Gust Speed Precip Events Conditions
12:15 AM 75.2 °F - 75.2 °F 100% 30.10 in 9.0 mi SE 5.8 mph - 0.00 in   Clear
12:35 AM 75.2 °F - 75.2 °F 100% 30.10 in 10.0 mi SE 5.8 mph - 0.00 in   Clear
12:55 AM 73.4 °F - 73.4 °F 100% 30.10 in 10.0 mi SSE 5.8 mph - 0.00 in   Clear
1:15 AM 73.4 °F - 73.4 °F 100% 30.10 in 8.0 mi SSE 4.6 mph - 0.00 in   Clear
1:35 AM 73.4 °F - 73.4 °F 100% 30.10 in 8.0 mi SSE 4.6 mph - 0.00 in   Clear
1:55 AM 73.4 °F - 73.4 °F 100% 30.10 in 9.0 mi SSE 3.5 mph - 0.00 in   Clear
2:15 AM 73.4 °F - 73.4 °F 100% 30.10 in 9.0 mi SSE 3.5 mph - 0.00 in   Clear
2:35 AM 71.6 °F - 71.6 °F 100% 30.10 in 9.0 mi SSE 3.5 mph - 0.00 in   Clear
2:55 AM 71.6 °F - 71.6 °F 100% 30.10 in 10.0 mi SSE 4.6 mph - 0.00 in   Clear
3:15 AM 71.6 °F - 71.6 °F 100% 30.10 in 10.0 mi SSE 4.6 mph - 0.00 in   Clear
3:35 AM 71.6 °F - 71.6 °F 100% 30.10 in 8.0 mi SSE 3.5 mph - 0.00 in   Clear
3:55 AM 71.6 °F - 71.6 °F 100% 30.10 in 10.0 mi SSE 3.5 mph - 0.00 in   Clear
4:15 AM 71.6 °F - 71.6 °F 100% 30.10 in 8.0 mi Calm Calm - 0.00 in   Clear
4:35 AM 71.6 °F - - N/A% 30.11 in 9.0 mi Calm Calm - 0.00 in   Clear
4:55 AM 71.6 °F - - N/A% 30.11 in 10.0 mi Calm Calm - 0.00 in   Clear
5:15 AM 71.6 °F - - N/A% 30.11 in 10.0 mi Calm Calm - 0.00 in   Clear
5:35 AM 69.8 °F - - N/A% 30.12 in 7.0 mi Calm Calm - 0.00 in   Clear
5:55 AM 69.8 °F - - N/A% 30.11 in 10.0 mi Calm Calm - 0.00 in   Clear
6:35 AM 69.8 °F - - N/A% 30.12 in 5.0 mi Calm Calm - 0.00 in   Mostly Cloudy
6:50 AM 69.8 °F - - N/A% 30.13 in 0.2 mi Calm Calm - N/A Fog Fog
6:55 AM 69.8 °F - - N/A% 30.12 in 0.5 mi Calm Calm - 0.00 in   Overcast
8:35 AM 71.6 °F - - N/A% 30.16 in 2.0 mi SE 5.8 mph - N/A   Overcast
8:50 AM 71.6 °F - - N/A% 30.15 in 0.5 mi Calm Calm - N/A Fog Fog
8:55 AM 73.4 °F - - N/A% 30.16 in 7.0 mi ESE 4.6 mph - N/A   Mostly Cloudy
9:35 AM 75.2 °F - 75.2 °F 100% 30.17 in 8.0 mi SSE 5.8 mph - N/A   Mostly Cloudy
9:50 AM 75.2 °F - 75.2 °F 100% 30.17 in 10.0 mi South 6.9 mph - N/A   Mostly Cloudy
10:50 AM 78.8 °F - 78.8 °F 100% 30.18 in 10.0 mi South 6.9 mph - N/A   Mostly Cloudy
11:35 AM 80.6 °F 88.1 °F 78.8 °F 94% 30.18 in 10.0 mi South 6.9 mph - N/A   Mostly Cloudy
11:50 AM 82.4 °F 92.4 °F 78.8 °F 89% 30.18 in 10.0 mi South 6.9 mph - N/A   Mostly Cloudy
12:15 PM 82.4 °F 92.4 °F 78.8 °F 89% 30.17 in 10.0 mi South 8.1 mph - N/A   Scattered Clouds
12:50 PM 84.2 °F 96.1 °F 78.8 °F 84% 30.16 in 10.0 mi South 8.1 mph - N/A   Scattered Clouds
1:50 PM 84.2 °F 96.1 °F 78.8 °F 84% 30.14 in 10.0 mi SSW 6.9 mph - N/A   Mostly Cloudy
2:55 PM 87.8 °F 99.7 °F 77.0 °F 70% 30.12 in 10.0 mi SSE 5.8 mph - N/A   Mostly Cloudy
3:50 PM 86.0 °F 96.9 °F 77.0 °F 74% 30.11 in 10.0 mi SSE 9.2 mph - N/A   Mostly Cloudy
4:50 PM 87.8 °F 97.6 °F 75.2 °F 66% 30.10 in 10.0 mi SSE 5.8 mph - N/A   Mostly Cloudy
5:55 PM 87.8 °F 95.6 °F 73.4 °F 62% 30.08 in 10.0 mi South 6.9 mph - N/A   Mostly Cloudy
6:55 PM 86.0 °F 93.4 °F 73.4 °F 66% 30.09 in 10.0 mi South 6.9 mph - N/A   Scattered Clouds
7:50 PM 82.4 °F 89.5 °F 75.2 °F 79% 30.09 in 10.0 mi South 3.5 mph - N/A   Scattered Clouds
9:35 PM 80.6 °F 87.1 °F 77.0 °F 89% 30.10 in 10.0 mi Calm Calm - 0.00 in   Clear
9:55 PM 78.8 °F - 77.0 °F 94% 30.10 in 9.0 mi Calm Calm - 0.00 in   Clear
10:15 PM 78.8 °F - 77.0 °F 94% 30.10 in 10.0 mi South 4.6 mph - 0.00 in   Clear
10:35 PM 77.0 °F - 77.0 °F 100% 30.11 in 10.0 mi South 6.9 mph - 0.00 in   Clear
10:55 PM 75.2 °F - 75.2 °F 100% 30.11 in 10.0 mi South 5.8 mph - 0.00 in   Clear
11:15 PM 75.2 °F - 75.2 °F 100% 30.11 in 10.0 mi South 5.8 mph - 0.00 in   Clear
11:35 PM 75.2 °F - 75.2 °F 100% 30.12 in 9.0 mi South 6.9 mph - 0.00 in   Clear
11:55 PM 75.2 °F - 75.2 °F 100% 30.12 in 10.0 mi South 5.8 mph - 0.00 in   Clear